Language: 


Des rapports , des résumés tant et plus, au choix de chacun....


Données statistiques de la station
Quotidien Rapport Novembre 11, 2017 Unités:  Métrique    Anglais   les deux
« Précédent Jour
Suivant Jour »
Quotidien Hebdomadaire Mensuel Annuel Actuel
  Haut: Bas: Moyen:
Température: 12.1 °C 5.6 °C 8.5 °C
Pt de rosée: 12.0 °C 4.0 °C 8.1 °C
Humidité: 98 % 88 % 95 %
Vitesse du vent: 13.0 km/h 0.0 km/h 1.8 km/h
Rafales: 13.0 km/h - -
Vent:- - WSW
Pression: 1018.2 hPa 1008.0 hPa -
Précipitation: 4.6 mm    
Historical Graphs
 
 
Données statistiques pour Novembre 11, 2017
Heure Température Point de rosée Pression Vent Vitesse du vent Refales Humidité Pluie (taux horaire)
00:01 5.7 °C 4.0 °C 1018.2 hPa West 7.6 km/h 7.6 km/h 88 % 0.0 mm
00:06 5.7 °C 4.0 °C 1018.2 hPa West 7.6 km/h 7.6 km/h 89 % 0.0 mm
00:12 5.7 °C 4.0 °C 1018.2 hPa West 7.6 km/h 7.6 km/h 89 % 0.0 mm
00:17 5.7 °C 4.0 °C 1018.2 hPa West 7.6 km/h 7.6 km/h 89 % 0.0 mm
00:22 5.7 °C 4.0 °C 1018.2 hPa West 7.6 km/h 7.6 km/h 89 % 0.0 mm
00:27 5.8 °C 5.0 °C 1018.2 hPa Calm     89 % 0.0 mm
00:32 5.9 °C 5.0 °C 1018.2 hPa Calm     89 % 0.0 mm
00:37 5.9 °C 5.0 °C 1018.2 hPa Calm     89 % 0.0 mm
00:42 5.9 °C 5.0 °C 1018.2 hPa Calm     89 % 0.0 mm
00:47 5.9 °C 5.0 °C 1018.2 hPa Calm     89 % 0.0 mm
00:52 5.8 °C 4.0 °C 1018.2 hPa Calm     88 % 0.0 mm
00:57 5.7 °C 4.0 °C 1016.8 hPa Calm     88 % 0.0 mm
01:02 5.6 °C 4.0 °C 1016.8 hPa Calm     88 % 0.0 mm
01:07 5.6 °C 4.0 °C 1016.8 hPa Calm     88 % 0.0 mm
01:12 5.6 °C 4.0 °C 1016.8 hPa Calm     88 % 0.0 mm
01:17 5.6 °C 4.0 °C 1016.8 hPa Calm     89 % 0.0 mm
01:23 5.6 °C 4.0 °C 1016.8 hPa Calm     89 % 0.0 mm
01:28 5.6 °C 4.0 °C 1016.8 hPa Calm   4.7 km/h 89 % 0.0 mm
01:32 5.6 °C 4.0 °C 1016.8 hPa Calm   4.7 km/h 90 % 0.0 mm
01:37 5.7 °C 4.0 °C 1016.8 hPa Calm     90 % 0.0 mm
01:43 5.7 °C 4.0 °C 1016.8 hPa Calm     90 % 0.0 mm
01:48 5.7 °C 4.0 °C 1016.8 hPa Calm     90 % 0.0 mm
01:53 5.7 °C 4.0 °C 1016.8 hPa Calm     90 % 0.0 mm
01:58 5.6 °C 4.0 °C 1016.1 hPa Calm     90 % 0.0 mm
02:03 5.6 °C 4.0 °C 1016.1 hPa Calm     90 % 0.0 mm
02:08 5.6 °C 4.0 °C 1016.1 hPa Calm     90 % 0.0 mm
02:13 5.7 °C 5.0 °C 1016.8 hPa Calm     91 % 0.0 mm
02:18 5.8 °C 5.0 °C 1016.8 hPa Calm     91 % 0.0 mm
02:23 6.0 °C 5.0 °C 1016.8 hPa Calm     91 % 0.0 mm
02:28 6.1 °C 5.0 °C 1016.1 hPa Calm     92 % 0.0 mm
02:33 6.1 °C 5.0 °C 1016.1 hPa Calm     92 % 0.0 mm
02:38 6.3 °C 5.0 °C 1016.1 hPa Calm     92 % 0.0 mm
02:43 6.3 °C 5.0 °C 1016.8 hPa Calm     92 % 0.0 mm
02:48 6.3 °C 5.0 °C 1016.8 hPa Calm     92 % 0.0 mm
02:53 6.4 °C 5.0 °C 1016.8 hPa Calm     92 % 0.0 mm
02:58 6.5 °C 6.0 °C 1016.1 hPa Calm     92 % 0.0 mm
03:03 6.5 °C 6.0 °C 1016.1 hPa Calm     92 % 0.0 mm
03:08 6.6 °C 6.0 °C 1016.1 hPa Calm     92 % 0.0 mm
03:13 6.7 °C 6.0 °C 1015.1 hPa Calm     91 % 0.0 mm
03:18 6.7 °C 6.0 °C 1015.1 hPa Calm     91 % 0.0 mm
03:23 6.7 °C 6.0 °C 1015.1 hPa Calm     91 % 0.0 mm
03:28 6.8 °C 6.0 °C 1014.1 hPa Calm     91 % 0.0 mm
03:33 6.9 °C 6.0 °C 1014.1 hPa Calm     91 % 0.0 mm
03:43 7.0 °C 6.0 °C 1016.1 hPa South 9.7 km/h 9.7 km/h 90 % 0.0 mm
03:48 7.1 °C 6.0 °C 1016.1 hPa South 9.7 km/h 9.7 km/h 90 % 0.0 mm
03:53 7.1 °C 6.0 °C 1016.1 hPa South 9.7 km/h 9.7 km/h 90 % 0.0 mm
03:58 7.1 °C 6.0 °C 1015.1 hPa South 9.7 km/h 9.7 km/h 89 % 0.0 mm
04:03 7.1 °C 6.0 °C 1015.1 hPa Calm     89 % 0.0 mm
04:08 7.1 °C 6.0 °C 1015.1 hPa Calm     90 % 0.0 mm
04:13 7.1 °C 6.0 °C 1014.1 hPa SSW 9.0 km/h 9.0 km/h 90 % 0.0 mm
04:19 7.1 °C 6.0 °C 1014.1 hPa SSW 9.0 km/h 9.0 km/h 90 % 0.0 mm
04:20 7.1 °C 6.0 °C 1014.1 hPa SSW 5.8 km/h 9.0 km/h 90 % 0.0 mm
04:25 7.1 °C 6.0 °C 1014.1 hPa SSW 5.5 km/h 9.0 km/h 90 % 0.0 mm
04:26 7.1 °C 6.0 °C 1014.1 hPa Calm   9.0 km/h 90 % 0.0 mm
04:31 7.1 °C 6.0 °C 1014.1 hPa Calm   7.9 km/h 91 % 0.0 mm
04:36 7.0 °C 6.0 °C 1014.1 hPa SSW 9.0 km/h 9.0 km/h 91 % 0.0 mm
04:41 7.0 °C 6.0 °C 1014.1 hPa SW 5.0 km/h 9.0 km/h 92 % 0.0 mm
04:46 7.0 °C 6.0 °C 1014.1 hPa Calm   5.8 km/h 92 % 0.0 mm
04:51 6.9 °C 6.0 °C 1014.1 hPa Calm   5.0 km/h 93 % 0.0 mm
04:56 6.9 °C 6.0 °C 1013.1 hPa Calm     94 % 0.3 mm
05:01 6.8 °C 6.0 °C 1013.1 hPa Calm     94 % 0.3 mm
05:06 6.8 °C 6.0 °C 1013.1 hPa Calm     95 % 0.3 mm
05:11 6.7 °C 6.0 °C 1013.1 hPa SSW 1.4 km/h 1.4 km/h 95 % 0.5 mm
05:16 6.7 °C 6.0 °C 1013.1 hPa SSW 6.1 km/h 6.1 km/h 96 % 0.5 mm
05:21 6.7 °C 6.0 °C 1013.1 hPa SSW 3.5 km/h 6.1 km/h 96 % 0.5 mm
05:26 6.7 °C 6.0 °C 1014.1 hPa SSW 6.4 km/h 6.4 km/h 97 % 0.8 mm
05:31 6.6 °C 6.0 °C 1014.1 hPa South 6.9 km/h 6.9 km/h 97 % 0.8 mm
05:36 6.6 °C 6.0 °C 1014.1 hPa SSW 5.5 km/h 6.9 km/h 97 % 1.3 mm
05:41 6.6 °C 6.0 °C 1013.1 hPa Calm   6.9 km/h 97 % 1.3 mm
05:46 6.6 °C 7.0 °C 1013.1 hPa Calm   5.5 km/h 98 % 1.5 mm
05:51 6.6 °C 7.0 °C 1013.1 hPa Calm   5.5 km/h 98 % 1.5 mm
05:56 6.6 °C 7.0 °C 1013.1 hPa Calm     98 % 1.5 mm
06:01 6.7 °C 7.0 °C 1013.1 hPa Calm   9.0 km/h 98 % 1.5 mm
06:06 6.6 °C 7.0 °C 1013.1 hPa SSW 4.3 km/h 9.0 km/h 98 % 1.8 mm
06:11 6.6 °C 7.0 °C 1012.1 hPa Calm   4.3 km/h 98 % 1.5 mm
06:16 6.7 °C 7.0 °C 1012.1 hPa Calm   4.3 km/h 98 % 1.5 mm
06:21 6.7 °C 7.0 °C 1012.1 hPa Calm     98 % 1.8 mm
06:26 6.7 °C 7.0 °C 1011.1 hPa Calm     98 % 1.5 mm
06:31 6.7 °C 7.0 °C 1011.1 hPa Calm     98 % 1.8 mm
06:33 6.7 °C 7.0 °C 1011.1 hPa SSW 3.5 km/h 3.5 km/h 98 % 1.8 mm
06:38 6.7 °C 7.0 °C 1011.1 hPa Calm   3.5 km/h 98 % 1.5 mm
06:43 6.7 °C 7.0 °C 1010.0 hPa Calm   3.5 km/h 98 % 1.8 mm
06:48 6.7 °C 7.0 °C 1010.0 hPa Calm     98 % 1.5 mm
06:53 6.8 °C 7.0 °C 1010.0 hPa Calm     98 % 1.5 mm
06:58 6.8 °C 7.0 °C 1011.1 hPa South 5.5 km/h 5.5 km/h 98 % 1.5 mm
07:03 6.8 °C 7.0 °C 1011.1 hPa Calm   5.5 km/h 98 % 1.5 mm
07:09 6.9 °C 7.0 °C 1011.1 hPa Calm   5.5 km/h 98 % 1.5 mm
07:14 6.9 °C 7.0 °C 1010.0 hPa SSE 2.6 km/h 2.6 km/h 98 % 1.5 mm
07:19 7.0 °C 7.0 °C 1010.0 hPa SSE 2.1 km/h 2.6 km/h 98 % 1.3 mm
07:24 7.0 °C 7.0 °C 1010.0 hPa Calm   2.6 km/h 98 % 1.3 mm
07:29 7.0 °C 7.0 °C 1010.0 hPa ESE 1.8 km/h 2.1 km/h 98 % 1.3 mm
07:34 7.0 °C 7.0 °C 1010.0 hPa ESE 1.8 km/h 1.8 km/h 98 % 1.3 mm
07:39 7.1 °C 7.0 °C 1010.0 hPa Calm   1.8 km/h 98 % 0.8 mm
07:44 7.2 °C 7.0 °C 1010.0 hPa Calm   5.0 km/h 98 % 0.8 mm
07:49 7.2 °C 7.0 °C 1010.0 hPa Calm   5.0 km/h 98 % 0.8 mm
07:54 7.3 °C 7.0 °C 1010.0 hPa Calm   4.0 km/h 98 % 0.5 mm
07:59 7.3 °C 7.0 °C 1009.0 hPa Calm   4.0 km/h 98 % 1.0 mm
08:04 7.3 °C 7.0 °C 1009.0 hPa Calm     98 % 1.0 mm
08:09 7.4 °C 7.0 °C 1009.0 hPa Calm     98 % 0.8 mm
08:14 7.4 °C 7.0 °C 1009.0 hPa SSE 5.0 km/h 5.0 km/h 98 % 0.8 mm
08:19 7.5 °C 8.0 °C 1009.0 hPa Calm   5.0 km/h 98 % 0.8 mm
08:22 7.5 °C 8.0 °C 1009.0 hPa Calm   5.0 km/h 98 % 0.8 mm
08:27 7.5 °C 8.0 °C 1009.0 hPa Calm     98 % 0.8 mm
08:32 7.6 °C 8.0 °C 1009.0 hPa South 4.7 km/h 4.7 km/h 98 % 0.8 mm
08:37 7.7 °C 8.0 °C 1009.0 hPa Calm   4.7 km/h 98 % 0.3 mm
08:42 7.8 °C 8.0 °C 1009.0 hPa Calm   4.7 km/h 98 % 0.3 mm
08:47 7.8 °C 8.0 °C 1009.0 hPa Calm     98 % 0.3 mm
08:52 7.9 °C 8.0 °C 1009.0 hPa Calm     98 % 0.3 mm
08:57 8.0 °C 8.0 °C 1009.0 hPa Calm     98 % 0.3 mm
09:02 8.0 °C 8.0 °C 1009.0 hPa Calm     98 % 0.0 mm
09:07 8.1 °C 8.0 °C 1009.0 hPa Calm     98 % 0.0 mm
09:12 8.2 °C 8.0 °C 1009.0 hPa Calm     98 % 0.0 mm
09:17 8.3 °C 9.0 °C 1009.0 hPa Calm     98 % 0.0 mm
09:22 8.3 °C 9.0 °C 1009.0 hPa Calm     98 % 0.0 mm
09:27 8.4 °C 9.0 °C 1010.0 hPa Calm     98 % 0.0 mm
09:33 8.5 °C 9.0 °C 1010.0 hPa Calm     98 % 0.0 mm
09:38 8.6 °C 9.0 °C 1010.0 hPa Calm     98 % 0.0 mm
09:43 8.6 °C 9.0 °C 1009.0 hPa Calm     98 % 0.0 mm
09:48 8.7 °C 9.0 °C 1009.0 hPa Calm     98 % 0.0 mm
09:53 8.9 °C 9.0 °C 1009.0 hPa Calm     98 % 0.0 mm
09:58 9.0 °C 9.0 °C 1009.0 hPa Calm     98 % 0.0 mm
10:03 9.1 °C 9.0 °C 1009.0 hPa Calm     98 % 0.0 mm
10:08 9.3 °C 9.0 °C 1009.0 hPa Calm     98 % 0.0 mm
10:13 9.5 °C 10.0 °C 1009.0 hPa Calm     98 % 0.0 mm
10:18 9.6 °C 10.0 °C 1009.0 hPa WSW 4.7 km/h 4.7 km/h 98 % 0.0 mm
10:23 9.6 °C 10.0 °C 1009.0 hPa Calm   5.5 km/h 98 % 0.0 mm
10:28 9.5 °C 10.0 °C 1009.0 hPa Calm   5.5 km/h 98 % 0.0 mm
10:33 9.5 °C 10.0 °C 1009.0 hPa Calm     98 % 0.0 mm
10:38 9.5 °C 10.0 °C 1009.0 hPa Calm     98 % 0.0 mm
10:43 9.6 °C 10.0 °C 1008.0 hPa Calm     98 % 0.0 mm
10:48 9.7 °C 10.0 °C 1008.0 hPa Calm     98 % 0.0 mm
10:53 9.9 °C 10.0 °C 1008.0 hPa West 6.4 km/h 6.4 km/h 98 % 0.0 mm
10:55 9.9 °C 10.0 °C 1008.0 hPa West 4.7 km/h 6.4 km/h 98 % 0.0 mm
11:00 10.1 °C 10.0 °C 1008.0 hPa West 4.7 km/h 6.4 km/h 98 % 0.0 mm
11:05 10.2 °C 10.0 °C 1008.0 hPa West 6.4 km/h 6.4 km/h 98 % 0.0 mm
11:10 10.2 °C 10.0 °C 1008.0 hPa West 6.4 km/h 6.4 km/h 98 % 0.0 mm
11:15 10.3 °C 10.0 °C 1008.0 hPa Calm   6.4 km/h 98 % 0.0 mm
11:20 10.5 °C 11.0 °C 1008.0 hPa WSW 6.9 km/h 6.9 km/h 98 % 0.3 mm
11:25 10.5 °C 11.0 °C 1008.0 hPa West 6.4 km/h 6.9 km/h 98 % 0.3 mm
11:30 10.5 °C 11.0 °C 1008.0 hPa Calm   6.4 km/h 98 % 0.3 mm
11:35 10.6 °C 11.0 °C 1008.0 hPa West 5.5 km/h 7.6 km/h 98 % 0.3 mm
11:40 10.7 °C 11.0 °C 1008.0 hPa WNW 4.7 km/h 7.6 km/h 98 % 0.3 mm
11:45 10.8 °C 11.0 °C 1008.0 hPa West 6.9 km/h 6.9 km/h 98 % 0.3 mm
11:50 10.8 °C 11.0 °C 1008.0 hPa West 10.1 km/h 10.1 km/h 98 % 0.3 mm
11:55 10.7 °C 11.0 °C 1008.0 hPa West 5.8 km/h 10.1 km/h 98 % 0.3 mm
12:00 10.8 °C 11.0 °C 1008.0 hPa West 9.0 km/h 10.1 km/h 98 % 0.3 mm
12:05 10.8 °C 11.0 °C 1008.0 hPa Calm   9.0 km/h 98 % 0.3 mm
12:10 11.0 °C 11.0 °C 1008.0 hPa West 4.7 km/h 4.7 km/h 98 % 0.3 mm
12:15 11.1 °C 11.0 °C 1008.0 hPa West 4.3 km/h 5.0 km/h 98 % 0.3 mm
12:16 11.1 °C 11.0 °C 1008.0 hPa NW 3.2 km/h 5.0 km/h 98 % 0.3 mm
12:21 11.1 °C 11.0 °C 1008.0 hPa WNW 4.7 km/h 5.0 km/h 98 % 0.0 mm
12:26 11.1 °C 11.0 °C 1008.0 hPa West 3.2 km/h 4.7 km/h 98 % 0.0 mm
12:31 11.2 °C 11.0 °C 1008.0 hPa Calm   4.7 km/h 98 % 0.0 mm
12:36 11.2 °C 11.0 °C 1008.0 hPa WNW 4.0 km/h 4.7 km/h 98 % 0.0 mm
12:41 11.3 °C 11.0 °C 1008.0 hPa Calm   8.7 km/h 98 % 0.0 mm
12:46 11.2 °C 11.0 °C 1008.0 hPa NE 6.1 km/h 9.3 km/h 98 % 0.0 mm
12:51 11.2 °C 11.0 °C 1008.0 hPa Calm   9.3 km/h 98 % 0.0 mm
12:56 11.3 °C 11.0 °C 1008.0 hPa Calm   6.9 km/h 98 % 0.0 mm
13:01 11.4 °C 11.0 °C 1008.0 hPa Calm   6.9 km/h 98 % 0.0 mm
13:06 11.5 °C 12.0 °C 1008.0 hPa NNW 5.0 km/h 6.4 km/h 98 % 0.0 mm
13:11 11.7 °C 12.0 °C 1008.0 hPa North 1.4 km/h 6.4 km/h 98 % 0.0 mm
13:16 11.7 °C 12.0 °C 1008.0 hPa NNW 6.9 km/h 9.0 km/h 98 % 0.0 mm
13:21 11.5 °C 12.0 °C 1008.0 hPa NNW 10.5 km/h 10.5 km/h 98 % 0.0 mm
13:27 11.6 °C 12.0 °C 1009.0 hPa Calm   10.5 km/h 98 % 0.0 mm
13:32 11.7 °C 12.0 °C 1009.0 hPa North 5.5 km/h 9.3 km/h 98 % 0.0 mm
13:33 11.7 °C 12.0 °C 1009.0 hPa Calm   9.3 km/h 98 % 0.0 mm
13:38 12.1 °C 12.0 °C 1009.0 hPa Calm   9.3 km/h 98 % 0.0 mm
13:43 12.1 °C 12.0 °C 1008.0 hPa West 5.8 km/h 5.8 km/h 98 % 0.0 mm
13:48 11.9 °C 12.0 °C 1008.0 hPa Calm   5.8 km/h 98 % 0.0 mm
13:53 11.8 °C 11.0 °C 1008.0 hPa North 2.1 km/h 5.8 km/h 97 % 0.0 mm
13:58 11.8 °C 11.0 °C 1008.0 hPa NNW 10.5 km/h 10.5 km/h 97 % 0.0 mm
14:03 11.6 °C 11.0 °C 1008.0 hPa NNW 6.9 km/h 10.5 km/h 96 % 0.0 mm
14:08 11.5 °C 11.0 °C 1008.0 hPa NNW 13.0 km/h 13.0 km/h 96 % 0.0 mm
14:13 11.4 °C 11.0 °C 1008.0 hPa NNE 12.2 km/h 13.0 km/h 96 % 0.0 mm
14:18 11.2 °C 11.0 °C 1008.0 hPa NNW 3.5 km/h 13.0 km/h 95 % 0.0 mm
14:23 11.0 °C 10.0 °C 1008.0 hPa North 5.5 km/h 12.2 km/h 95 % 0.0 mm
14:28 10.9 °C 10.0 °C 1009.0 hPa WNW 4.3 km/h 7.9 km/h 95 % 0.0 mm
14:33 11.0 °C 10.0 °C 1009.0 hPa North 9.0 km/h 9.0 km/h 95 % 0.0 mm
14:39 11.0 °C 10.0 °C 1009.0 hPa Calm   9.0 km/h 95 % 0.0 mm
14:44 10.9 °C 11.0 °C 1009.0 hPa North 4.3 km/h 9.0 km/h 96 % 0.0 mm
14:49 10.9 °C 10.0 °C 1009.0 hPa NNW 9.3 km/h 9.7 km/h 95 % 0.0 mm
14:54 10.9 °C 10.0 °C 1009.0 hPa NNW 4.7 km/h 9.7 km/h 95 % 0.0 mm
14:59 10.9 °C 10.0 °C 1009.0 hPa NW 10.1 km/h 10.5 km/h 95 % 0.0 mm
15:04 10.9 °C 10.0 °C 1009.0 hPa Calm   10.5 km/h 95 % 0.0 mm
15:09 10.9 °C 10.0 °C 1009.0 hPa North 7.6 km/h 10.1 km/h 95 % 0.0 mm
15:14 10.9 °C 10.0 °C 1009.0 hPa NNE 7.2 km/h 10.1 km/h 94 % 0.0 mm
15:19 10.8 °C 10.0 °C 1009.0 hPa North 6.4 km/h 11.9 km/h 94 % 0.0 mm
15:24 10.8 °C 10.0 °C 1009.0 hPa North 9.7 km/h 11.9 km/h 94 % 0.0 mm
15:29 10.7 °C 10.0 °C 1008.0 hPa NNE 5.5 km/h 9.7 km/h 94 % 0.0 mm
15:34 10.6 °C 10.0 °C 1008.0 hPa NNE 4.7 km/h 9.7 km/h 94 % 0.0 mm
15:39 10.6 °C 10.0 °C 1008.0 hPa North 2.1 km/h 6.9 km/h 94 % 0.0 mm
15:44 10.6 °C 10.0 °C 1010.0 hPa Calm   6.9 km/h 94 % 0.0 mm
15:49 10.6 °C 10.0 °C 1010.0 hPa North 5.8 km/h 6.4 km/h 95 % 0.0 mm
15:54 10.6 °C 10.0 °C 1010.0 hPa Calm   6.4 km/h 94 % 0.0 mm
15:59 10.6 °C 10.0 °C 1009.0 hPa Calm   6.4 km/h 94 % 0.0 mm
16:04 10.5 °C 10.0 °C 1009.0 hPa Calm     94 % 0.0 mm
16:09 10.4 °C 9.0 °C 1009.0 hPa Calm     94 % 0.0 mm
16:14 10.3 °C 9.0 °C 1009.0 hPa North 1.4 km/h 4.0 km/h 94 % 0.0 mm
16:20 10.3 °C 9.0 °C 1009.0 hPa Calm   4.0 km/h 94 % 0.0 mm
16:25 10.2 °C 10.0 °C 1009.0 hPa North 2.6 km/h 2.6 km/h 95 % 0.0 mm
16:30 10.2 °C 10.0 °C 1009.0 hPa Calm   2.6 km/h 95 % 0.0 mm
16:35 10.1 °C 9.0 °C 1009.0 hPa Calm   2.6 km/h 95 % 0.0 mm
16:40 10.1 °C 9.0 °C 1009.0 hPa Calm     95 % 0.0 mm
16:45 10.1 °C 9.0 °C 1009.0 hPa Calm     95 % 0.0 mm
16:50 10.1 °C 9.0 °C 1009.0 hPa Calm     95 % 0.0 mm
16:55 10.0 °C 9.0 °C 1009.0 hPa Calm     95 % 0.0 mm
17:00 10.0 °C 9.0 °C 1009.0 hPa Calm     95 % 0.0 mm
17:05 10.0 °C 9.0 °C 1009.0 hPa Calm     95 % 0.0 mm
17:10 9.9 °C 10.0 °C 1009.0 hPa Calm     96 % 0.0 mm
17:15 9.9 °C 10.0 °C 1009.0 hPa Calm   4.0 km/h 96 % 0.0 mm
17:20 9.9 °C 10.0 °C 1009.0 hPa North 1.8 km/h 4.0 km/h 96 % 0.0 mm
17:25 9.9 °C 10.0 °C 1009.0 hPa NNW 5.0 km/h 5.0 km/h 96 % 0.0 mm
17:30 9.8 °C 9.0 °C 1009.0 hPa North 6.4 km/h 9.3 km/h 95 % 0.0 mm
17:35 9.8 °C 9.0 °C 1009.0 hPa North 6.4 km/h 9.3 km/h 95 % 0.0 mm
17:40 9.7 °C 9.0 °C 1009.0 hPa North 6.1 km/h 9.3 km/h 95 % 0.0 mm
17:45 9.7 °C 9.0 °C 1010.0 hPa Calm   6.9 km/h 95 % 0.0 mm
17:50 9.6 °C 9.0 °C 1010.0 hPa NNE 5.0 km/h 6.9 km/h 94 % 0.0 mm
17:55 9.5 °C 9.0 °C 1010.0 hPa Calm   6.4 km/h 94 % 0.0 mm
18:00 9.4 °C 9.0 °C 1010.0 hPa Calm   6.4 km/h 94 % 0.0 mm
18:05 9.4 °C 9.0 °C 1010.0 hPa Calm   4.7 km/h 94 % 0.0 mm
18:10 9.3 °C 9.0 °C 1010.0 hPa Calm   3.2 km/h 94 % 0.0 mm
18:15 9.3 °C 9.0 °C 1010.0 hPa Calm     94 % 0.0 mm
18:20 9.3 °C 9.0 °C 1010.0 hPa Calm     94 % 0.0 mm
18:25 9.2 °C 9.0 °C 1010.0 hPa Calm   3.2 km/h 94 % 0.0 mm
18:31 9.2 °C 9.0 °C 1010.0 hPa Calm   3.2 km/h 94 % 0.0 mm
18:36 9.2 °C 9.0 °C 1010.0 hPa Calm     94 % 0.0 mm
18:41 9.2 °C 9.0 °C 1010.0 hPa Calm     94 % 0.0 mm
18:46 9.2 °C 9.0 °C 1010.0 hPa Calm     94 % 0.0 mm
18:51 9.2 °C 9.0 °C 1010.0 hPa Calm     94 % 0.0 mm
18:56 9.1 °C 8.0 °C 1010.0 hPa Calm     94 % 0.0 mm
19:01 9.1 °C 8.0 °C 1010.0 hPa Calm     94 % 0.0 mm
19:06 9.1 °C 9.0 °C 1010.0 hPa Calm     95 % 0.0 mm
19:11 9.0 °C 9.0 °C 1011.1 hPa Calm     95 % 0.0 mm
19:16 9.0 °C 9.0 °C 1011.1 hPa Calm     95 % 0.0 mm
19:21 9.0 °C 9.0 °C 1011.1 hPa Calm     95 % 0.0 mm
19:27 9.0 °C 9.0 °C 1011.1 hPa Calm     95 % 0.0 mm
19:32 8.9 °C 9.0 °C 1011.1 hPa Calm     95 % 0.0 mm
19:37 8.9 °C 9.0 °C 1011.1 hPa Calm     95 % 0.0 mm
19:42 8.9 °C 9.0 °C 1011.1 hPa Calm     95 % 0.0 mm
19:47 8.9 °C 9.0 °C 1011.1 hPa Calm     96 % 0.0 mm
19:52 8.9 °C 9.0 °C 1011.1 hPa Calm     96 % 0.0 mm
19:57 8.9 °C 9.0 °C 1011.1 hPa Calm     96 % 0.0 mm
20:02 8.9 °C 9.0 °C 1011.1 hPa Calm   2.6 km/h 96 % 0.0 mm
20:07 8.9 °C 9.0 °C 1011.1 hPa Calm   2.6 km/h 96 % 0.0 mm
20:12 8.9 °C 9.0 °C 1011.1 hPa Calm     96 % 0.0 mm
20:17 8.8 °C 9.0 °C 1011.1 hPa Calm     96 % 0.0 mm
20:22 8.8 °C 9.0 °C 1011.1 hPa Calm     96 % 0.0 mm
20:27 8.8 °C 9.0 °C 1011.1 hPa Calm     96 % 0.0 mm
20:32 8.8 °C 9.0 °C 1011.1 hPa Calm     96 % 0.0 mm
20:37 8.8 °C 9.0 °C 1011.1 hPa Calm     96 % 0.0 mm
20:42 8.8 °C 9.0 °C 1011.1 hPa Calm     96 % 0.0 mm
20:47 8.7 °C 9.0 °C 1011.1 hPa Calm     96 % 0.0 mm
20:52 8.7 °C 9.0 °C 1011.1 hPa Calm     96 % 0.0 mm
20:57 8.7 °C 9.0 °C 1011.1 hPa Calm     96 % 0.0 mm
21:02 8.6 °C 9.0 °C 1011.1 hPa Calm     97 % 0.0 mm
21:07 8.6 °C 9.0 °C 1011.1 hPa Calm     97 % 0.0 mm
21:12 8.6 °C 9.0 °C 1011.1 hPa Calm     97 % 0.0 mm
21:17 8.6 °C 9.0 °C 1011.1 hPa Calm     97 % 0.0 mm
21:22 8.6 °C 9.0 °C 1011.1 hPa Calm     97 % 0.0 mm
21:27 8.5 °C 9.0 °C 1011.1 hPa Calm     97 % 0.0 mm
21:32 8.5 °C 9.0 °C 1011.1 hPa Calm     97 % 0.0 mm
21:37 8.5 °C 9.0 °C 1011.1 hPa Calm     97 % 0.0 mm
21:42 8.5 °C 9.0 °C 1011.1 hPa Calm     97 % 0.0 mm
21:47 8.4 °C 8.0 °C 1011.1 hPa Calm     97 % 0.0 mm
21:52 8.2 °C 8.0 °C 1011.1 hPa Calm     97 % 0.0 mm
21:57 8.2 °C 8.0 °C 1010.0 hPa Calm     97 % 0.0 mm
22:02 8.2 °C 8.0 °C 1010.0 hPa Calm     97 % 0.0 mm
22:07 8.1 °C 8.0 °C 1010.0 hPa Calm     98 % 0.0 mm
22:12 8.1 °C 8.0 °C 1011.1 hPa Calm     98 % 0.0 mm
22:18 8.0 °C 8.0 °C 1011.1 hPa Calm     98 % 0.0 mm
22:23 8.0 °C 8.0 °C 1011.1 hPa Calm     98 % 0.0 mm
22:28 7.9 °C 8.0 °C 1011.1 hPa Calm     98 % 0.0 mm
22:33 7.9 °C 8.0 °C 1011.1 hPa Calm     98 % 0.0 mm
22:38 7.8 °C 8.0 °C 1011.1 hPa Calm     98 % 0.0 mm
22:43 7.8 °C 8.0 °C 1011.1 hPa Calm     98 % 0.0 mm
22:48 7.7 °C 8.0 °C 1011.1 hPa Calm     98 % 0.0 mm
22:53 7.7 °C 8.0 °C 1011.1 hPa Calm     98 % 0.0 mm
22:58 7.5 °C 8.0 °C 1011.1 hPa Calm     98 % 0.0 mm
23:03 7.4 °C 7.0 °C 1011.1 hPa Calm     98 % 0.0 mm
23:08 7.4 °C 7.0 °C 1011.1 hPa Calm     98 % 0.0 mm
23:13 7.4 °C 7.0 °C 1011.1 hPa Calm     98 % 0.0 mm
23:18 7.4 °C 7.0 °C 1011.1 hPa Calm     98 % 0.0 mm
23:23 7.4 °C 7.0 °C 1011.1 hPa Calm     98 % 0.0 mm
23:28 7.4 °C 7.0 °C 1011.1 hPa Calm     98 % 0.0 mm
23:33 7.5 °C 8.0 °C 1011.1 hPa Calm     98 % 0.0 mm
23:38 7.5 °C 8.0 °C 1011.1 hPa Calm     98 % 0.0 mm
23:43 7.5 °C 8.0 °C 1011.1 hPa Calm     98 % 0.0 mm
23:48 7.4 °C 7.0 °C 1011.1 hPa Calm     98 % 0.0 mm
23:53 7.3 °C 7.0 °C 1011.1 hPa Calm     98 % 0.0 mm
23:58 7.2 °C 7.0 °C 1011.1 hPa Calm     98 % 0.0 mm
Le Gheer Warneton
Courtoisie de Weather Underground - 2.25 mb

Mise a jour : 17-12-17 03:15:13
Généré par Cumulus 1.9.4 (1099)